Weather in Churovichi

Russia / Bryansk Oblast     52°10′16″N   32°00′00″E
temp.,
°C
wind,
m/s
gust,
m/s
humid.,
%
clouds,
%
prec.,
mm/h
press.,
hPa
HPBL,
m
19 january, wed
wed1900:00−8nnw7158885 0.0 1022543
03:00−9nnw5129257 0.0 1023339
06:00−11nw3696100 0.0 102485
09:00−10wnw269699 0.0 1024140
12:00−5w248676 0.0 1023275
15:00−4wsw359062 0.0 1021332
18:00−5ssw379587 0.0 1020174
21:00−6sw389724 0.1 1018159
20 january, thu
thu2000:00−7ssw3897100 0.0 1016142
03:00−3ssw4896100 0.0 1014271
06:00−3ssw51097100 0.0 1011346
09:00−3ssw61297100 0.1 1009411
12:00−2ssw71394100 0.0 1007521
15:00−1ssw71385100 0.0 1004714
18:00−2sw61394100 0.1 1003584
21:00−1sw61293100 0.9 1003657
21 january, fri
fri2100:00−2ssw4994100 0.0 1003295
03:00−4sw3897100 0.3 1002270
06:00−5wsw51192100 0.2 1001467
09:00−7sw5119387 0.2 1001324
12:00−4ssw71395100 0.2 999857
15:00−3sw71396100 1.6 997913
18:00−3wsw61295100 0.6 997666
21:00−3wsw61293100 1.1 998650
22 january, sat
sat2200:00−3wsw6129499 0.3 999538
03:00−3wsw61294100 0.8 999615
06:00−4wsw4995100 0.3 1000363
09:00−5w3796100 0.4 1002263
12:00−4w3591100 0.1 1005483
15:00−3w2487100 0.2 1006512
18:00−9w119674 0.1 100910
21:00−10ne119880 0.1 101210
23 january, sun
sun2300:00−13ene2210092 0.0 101510
03:00−10ene229887 0.1 101738
06:00−11ne349787 0.1 102075
09:00−12ne349774 0.1 102368
12:00−8ne3494100 0.1 1025217
15:00−5ne4589100 0.1 1027501
18:00−6ne4686100 0.1 1029368
21:00−11nne479598 0.1 1031137